Regional Weather Roundup
Issued by NWS

Home | Current Version | Previous Version | Text Only | Print | Product List | Glossary On
Versions: 1 2 3 4 5 6 7 8 9 10 11 12 13 14 15 16 17 18 19 20 21 22 23 24 25 26 27 28 29 30 31 32 33 34 35 36 37 38 39 40 41 42 43 44 45 46 47 48 49 50
000
ASUS43 KMPX 270410
RWRMN
WEATHER ROUNDUP FOR MINNESOTA
NATIONAL WEATHER SERVICE TWIN CITIES/CHANHASSEN MN
1100 PM CDT MON JUN 26 2017


NOTE: "FAIR" INDICATES FEW OR NO CLOUDS BELOW 12,000 FEET WITH NO
SIGNIFICANT WEATHER AND/OR OBSTRUCTIONS TO VISIBILITY. N/A MEANS
CURRENT SKY AND/OR WEATHER CONDITIONS ARE NOT AVAILABLE.

MNZ060>063-068>070-270500-
   Twin Cities Metro

CITY           SKY/WX    TMP DP  RH WIND       PRES   REMARKS
TWIN CITIES    CLEAR     62  47  57 W3        30.11R
ST PAUL        CLEAR     58  50  75 CALM      30.11R
CRYSTAL        CLEAR     56  44  64 CALM      30.09S
BLAINE         CLEAR     54  48  82 CALM      30.10S
LAKEVILLE      CLEAR     54  50  87 CALM      30.12R
EDEN PRAIRIE   CLEAR     61  46  57 W3        30.10R
SOUTH ST PAUL  CLEAR     58  47  66 CALM      30.11S
LAKE ELMO      FAIR      54  52  94 CALM      30.11S
$$
MNZ001>005-007-008-013>017-022>024-027-028-270500-
   Northwest Minnesota

CITY           SKY/WX    TMP DP  RH WIND       PRES   REMARKS
BEMIDJI        CLEAR     53  42  67 CALM      30.07S
HALLOCK        CLEAR     55  45  67 S5        30.01F
ROSEAU         CLEAR     54  46  76 CALM      30.03S
WARROAD        CLEAR     57  46  67 W6        30.03F
THIEF RVR FALL CLEAR     57  45  64 S3        30.05F
CROOKSTON      CLEAR     57  45  62 SW3       30.05F
FOSSTON        CLEAR     48  43  81 S5        30.08S
DETROIT LAKES  CLEAR     55  46  71 CALM      30.10F
MOORHEAD       CLEAR     61  39  44 S5        30.08S
PARK RAPIDS    CLEAR     55  42  61 CALM      30.08S
MAHNOMEN       FAIR      58  45  62 S5        30.07F
$$
MNZ006-009>011-018-025>026-270500-
   North Central Minnesota

CITY           SKY/WX    TMP DP  RH WIND       PRES   REMARKS
BAUDETTE       CLEAR     52  50  93 CALM      30.03S
FLAG ISLAND    CLEAR     63  46  55 SW6       30.00F HAZE
INTL FALLS     CLEAR     46  43  89 CALM      30.02S
WASKISH        CLEAR     57  52  82 W3        30.04F
BIG FORK       CLEAR     48  46  93 CALM      30.05S
LONGVILLE      CLEAR     48  46  93 CALM      30.07F
GRAND RAPIDS   CLEAR     50  45  83 SW5       30.08S
CRANE LAKE     CLOUDY    50  48  93 CALM      30.04S FOG
ORR            CLEAR     50  45  81 CALM      30.02S
COOK           CLEAR     48  48 100 CALM      30.05S
WALKER         FAIR      48  45  87 CALM      30.08S
$$
MNZ012-019>021-037-270500-
   Northeast Minnesota

CITY           SKY/WX    TMP DP  RH WIND       PRES   REMARKS
DULUTH         MOCLDY    54  48  80 W7        30.05S
ELY            MOCLDY    52  48  87 CALM      30.03S
HIBBING        CLEAR     48  45  89 CALM      30.05R
EVELETH        CLEAR     53  48  84 CALM      30.06R
DULUTH HARBOR  MOCLDY    61  52  72 SW7       30.05S
TWO HARBORS    CLEAR     54  48  82 CALM      30.02F
SILVER BAY     MOCLDY    54  50  87 CALM      30.02S
GRAND MARAIS     N/A     51  49  92 NW3       29.99F
G MARAIS ARPRT CLEAR     50  43  76 W5        30.02F
$$
MNZ029>031-032-039>041-046>048-054>057-064-270500-
   West Central Minnesota

CITY           SKY/WX    TMP DP  RH WIND       PRES   REMARKS
FERGUS FALLS   CLEAR     59  45  58 S3        30.07F
WHEATON        CLEAR     61  39  44 S6        30.12S
MORRIS         CLEAR     59  43  55 S3        30.11S
ALEXANDRIA     CLEAR     55  44  66 S3        30.12S
ELBOW LAKE     FAIR      55  45  67 SW5       30.11S
WADENA         CLEAR     52  45  76 CALM      30.10S
GLENWOOD       CLEAR     55  45  67 SW3       30.13S
APPLETON       CLEAR     57  46  67 S3        30.11F
BENSON         CLEAR     55  45  67 CALM      30.13F
ORTONVILLE     CLEAR     57  41  54 S3        30.11F
MADISON        CLEAR     61  48  63 CALM      30.13S
WILLMAR        FAIR      57  46  67 CALM      30.14S
$$
MNZ033>034-036-042>043-049>051-058-059-270500-
   Central Minnesota

CITY           SKY/WX    TMP DP  RH WIND       PRES   REMARKS
ST CLOUD       CLEAR     51  46  83 CALM      30.10S
SAUK CENTRE    FAIR      51  44  75 CALM      30.12S
PAYNESVILLE    CLEAR     51  44  76 CALM      30.12F
AITKIN         CLEAR     46  45  93 CALM      30.07S
PINE RIVER     CLEAR     50  45  81 CALM      30.11F
BRAINERD       CLEAR     48  44  86 S3        30.09S
STAPLES        CLEAR     54  43  66 CALM      30.10S
LONG PRAIRIE   FAIR      52  46  82 S3        30.11S
LITTLE FALLS   CLEAR     48  43  81 CALM      30.11S
LITCHFIELD     CLEAR     57  46  67 CALM      30.13R
BUFFALO        PTCLDY    56  47  71 CALM      30.12S
MAPLE LAKE     PTCLDY    53  49  86 CALM      30.12S
HUTCHINSON     CLEAR     56  46  71 CALM      30.13S
$$
MNZ037-044-045-052-053-270500-
   East Central Minnesota

CITY           SKY/WX    TMP DP  RH WIND       PRES   REMARKS
PRINCETON      CLEAR     52  48  87 CALM      30.10S
MORA           CLEAR     52  46  82 CALM      30.10S
CAMBRIDGE      PTCLDY    55  45  67 CALM      30.08S
RUSH CITY      CLOUDY    52  46  82 CALM      30.09S
MOOSE LAKE     PTCLDY    46  45  93 W3        30.05S
HINCKLEY       FAIR      54  46  76 W5        30.08S
CLOQUET        MOCLDY    55  43  62 W5        30.06S
MCGREGOR       CLEAR     55  43  62 SW3       30.07S
$$
MNZ071>073-080-081-089-090-097-098-270500-
   Southwest Minnesota

CITY           SKY/WX    TMP DP  RH WIND       PRES   REMARKS
MONTEVIDEO     CLEAR     57  37  47 CALM      30.13S
GRANITE FALLS  CLEAR     57  46  68 CALM      30.15S
CANBY          CLEAR     53  46  76 CALM      30.14F
MARSHALL       CLEAR     56  46  69 S3        30.14S
REDWOOD FALLS  CLEAR     61  41  47 CALM      30.13R
OLIVIA         PTCLDY    55  43  62 CALM      30.13S
PIPESTONE      CLEAR     59  39  47 SE3       30.15S
WINDOM         CLEAR     54  43  66 CALM      30.15S
WORTHINGTON    CLEAR     58  43  57 CALM      30.16S
JACKSON        CLEAR     54  45  71 CALM      30.16S
TRACY          CLEAR     57  45  63 CALM      30.14F
SLAYTON        CLEAR     57  44  63 CALM      30.16S
$$
MNZ065>067-074>077-082>085-091>093-270500-
   South Central Minnesota

CITY           SKY/WX    TMP DP  RH WIND       PRES   REMARKS
MANKATO        CLEAR     60  43  53 SW3       30.13S
NEW ULM        CLEAR     57  43  58 CALM      30.13S
ST JAMES       CLEAR     55  46  71 SW3       30.15R
FAIRMONT       CLEAR     55  46  71 CALM      30.15R
GLENCOE        PTCLDY    57  50  77 CALM      30.12S
FARIBAULT      PTCLDY    55  48  76 CALM      30.13S
OWATONNA       CLEAR     55  46  71 SE5       30.13S
WASECA         CLEAR     54  45  71 CALM      30.14S
ALBERT LEA     CLEAR     54  46  76 CALM      30.14S
$$
MNZ078>079-086>088-094>096-270500-
   Southeast Minnesota

CITY           SKY/WX    TMP DP  RH WIND       PRES   REMARKS
ROCHESTER      CLEAR     56  46  69 CALM      30.14R
RED WING       CLEAR     52  48  87 CALM      30.10S
STANTON        CLEAR     55  50  81 S3        30.11S
DODGE CENTER   CLEAR     54  46  76 CALM      30.13S
WINONA         CLEAR     54  46  76 CALM      30.12S
AUSTIN         CLEAR     55  45  67 CALM      30.13S
PRESTON        CLEAR     56  45  64 NW3       30.14S
$$
ABBREVIATIONS USED IN REMARKS
   TC - TEMPERATURES IN CELSIUS
  WCI - WIND CHILL INDEX
   HX - HEAT INDEX
  VSB - VISIBILITY
$$



USA.gov is the U.S. government's official web portal to all federal, state and local government web resources and services.